Home > Weather > Las Cruces > Past weeks

Flag for USA Weather for the Past 2 Weeks in Las Cruces, New Mexico, USA

Now
46 °F

Clear.


Feels Like: 46 °F
Forecast: 48 / 79 °F
Wind: No wind

Location: Las Cruces International

Current Time: May 3, 2016 at 7:30:58 AM

Latest Report: May 3, 2016 at 6:55 AM


Visibility: 10 mi

Pressure: 30.13 "Hg (26.08 "Hg at 1187m altitude)

Humidity: 53%

Dew Point: 30 °F

Location of Las CrucesLocation

Historic Weather in Las Cruces — Graph

°F

Las Cruces Temperature Yesterday

Maximum temperature yesterday: 70 °F (at 4:35 PM)
Minimum temperature yesterday: 35 °F (at 6:35 AM)
Average temperature yesterday: 53 °F

High & Low Weather Summary for the Past Weeks

 TemperatureHumidityPressure
High85 °F (Apr 23, 5:15 PM)86% (Apr 23, 3:15 AM)30.29 "Hg (Apr 23, 3:15 AM)
Low35 °F (May 2, 6:35 AM)6% (Apr 20, 3:55 PM)29.72 "Hg (Apr 28, 5:15 PM)
Average63 °F28%29.98 "Hg
* Reported Apr 18 6:15 AM — May 3 6:15 AM, Las Cruces, Weather by CustomWeather, © 2016

Note: Actual official high and low records may vary slightly from our data, if they occured in-between our weather recording intervals... More about our weather records

Advertising

Las Cruces Weather History for the Previous 24 Hours

Scroll right to see more
 ConditionsComfort  
Time TempWeatherWind HumidityBarometerVisibility
6:15 AM
Tue, May 3
43 °FClear.5 mph55%30.12 "Hg10 mi
5:15 AM47 °FClear.5 mph51%30.10 "Hg10 mi
4:55 AM50 °FClear.3 mph45%30.10 "Hg10 mi
4:35 AM52 °FClear.7 mph42%30.10 "Hg10 mi
4:15 AM53 °FClear.7 mph42%30.10 "Hg10 mi
3:55 AM52 °FClear.6 mph43%30.11 "Hg10 mi
3:15 AM52 °FClear.6 mph42%30.10 "Hg10 mi
2:55 AM52 °FClear.5 mph41%30.10 "Hg10 mi
2:15 AM55 °FClear.6 mph37%30.10 "Hg10 mi
1:55 AM56 °FClear.6 mph36%30.11 "Hg10 mi
1:15 AM54 °FClear.5 mph37%30.12 "Hg10 mi
12:55 AM56 °FClear.6 mph35%30.12 "Hg10 mi
12:35 AM56 °FClear.7 mph34%30.12 "Hg10 mi
12:15 AM56 °FClear.5 mph33%30.13 "Hg10 mi
11:35 PM
Mon, May 2
54 °FClear.3 mph33%30.12 "Hg10 mi
10:55 PM51 °FClear.3 mph34%30.13 "Hg10 mi
10:35 PM56 °FClear.3 mph31%30.13 "Hg10 mi
10:15 PM51 °FClear.3 mph31%30.13 "Hg10 mi
9:55 PM52 °FClear.No wind31%30.13 "Hg10 mi
9:15 PM56 °FClear.No wind28%30.12 "Hg10 mi
8:55 PM57 °FClear.No wind28%30.12 "Hg10 mi
8:35 PM58 °FSunny.No wind28%30.11 "Hg10 mi
8:15 PM61 °FSunny.No wind26%30.11 "Hg10 mi
7:55 PM65 °FSunny.No wind24%30.10 "Hg10 mi
7:15 PM68 °FSunny.5 mph22%30.10 "Hg10 mi
6:55 PM69 °FSunny.6 mph21%30.10 "Hg10 mi
6:15 PM69 °FSunny.No wind21%30.09 "Hg10 mi
5:55 PM69 °FSunny.3 mph22%30.09 "Hg10 mi
5:15 PM69 °FSunny.8 mph22%30.10 "Hg10 mi
4:55 PM70 °FSunny.6 mph21%30.10 "Hg10 mi
4:35 PM70 °FSunny.7 mph22%30.11 "Hg10 mi
4:15 PM70 °FSunny.3 mph22%30.12 "Hg10 mi
3:55 PM69 °FSunny.3 mph23%30.12 "Hg10 mi
3:15 PM67 °FSunny.3 mph26%30.14 "Hg10 mi
2:55 PM67 °FSunny.6 mph25%30.16 "Hg10 mi
2:35 PM67 °FSunny.9 mph26%30.17 "Hg10 mi
2:15 PM66 °FSunny.5 mph27%30.18 "Hg10 mi
1:55 PM64 °FSunny.6 mph30%30.19 "Hg10 mi
1:35 PM64 °FSunny.3 mph30%30.20 "Hg10 mi
1:15 PM62 °FSunny.No wind32%30.21 "Hg10 mi
12:55 PM60 °FSunny.No wind34%30.23 "Hg10 mi
12:15 PM57 °FSunny.6 mph37%30.25 "Hg10 mi
11:55 AM58 °FSunny.6 mph37%30.25 "Hg10 mi
11:15 AM56 °FSunny.No wind40%30.27 "Hg10 mi
10:55 AM55 °FSunny.3 mph42%30.27 "Hg10 mi
10:35 AM54 °FSunny.5 mph43%30.28 "Hg10 mi
10:15 AM52 °FSunny.No wind46%30.28 "Hg10 mi
9:55 AM52 °FSunny.No wind49%30.28 "Hg10 mi
9:35 AM50 °FSunny.No wind51%30.28 "Hg10 mi
9:15 AM49 °FSunny.No wind55%30.29 "Hg10 mi
8:55 AM47 °FSunny.No wind59%30.28 "Hg10 mi
8:35 AM47 °FSunny.3 mph60%30.28 "Hg10 mi
8:15 AM46 °FSunny.No wind62%30.28 "Hg10 mi
7:55 AM44 °FSunny.No wind65%30.27 "Hg10 mi
7:35 AM43 °FSunny.No wind68%30.27 "Hg10 mi
7:15 AM41 °FClear.No wind73%30.27 "Hg10 mi
Weather by CustomWeather, © 2016

See weather overviewHow to use our weather pages